| time (UTC) | temp F | wind direction | speed MPH | gust MPH | rain 1hr in | rain 24hr in | rain mn in | humidity % | barometer mb |
| 20260508224557 | 62 | 0 | 0.0 | 5.0 | 0.00 | 0.00 | 0.00 | 64 | 1014.8 |
| 20260508223056 | 62 | 103 | 0.0 | 3.0 | 0.00 | 0.00 | 0.00 | 64 | 1015.0 |
| 20260508221554 | 62 | 126 | 1.0 | 4.0 | 0.00 | 0.00 | 0.00 | 62 | 1014.9 |
| 20260508220059 | 63 | 219 | 1.0 | 8.0 | 0.00 | 0.00 | 0.00 | 61 | 1014.8 |
| 20260508214607 | 63 | 121 | 2.0 | 6.0 | 0.00 | 0.00 | 0.00 | 60 | 1014.8 |
| 20260508213052 | 64 | 0 | 1.0 | 4.0 | 0.00 | 0.00 | 0.00 | 60 | 1014.9 |
| 20260508211555 | 63 | 137 | 0.0 | 4.0 | 0.00 | 0.00 | 0.00 | 59 | 1014.6 |
| 20260508210056 | 64 | 0 | 0.0 | 4.0 | 0.00 | 0.00 | 0.00 | 59 | 1014.6 |
| 20260508204552 | 63 | 129 | 1.0 | 5.0 | 0.00 | 0.00 | 0.00 | 58 | 1014.7 |
| 20260508203054 | 64 | 0 | 0.0 | 3.0 | 0.00 | 0.00 | 0.00 | 59 | 1014.8 |
| 20260508201553 | 63 | 268 | 0.0 | 3.0 | 0.00 | 0.00 | 0.00 | 57 | 1014.9 |
| 20260508200052 | 63 | 0 | 0.0 | 4.0 | 0.00 | 0.00 | 0.00 | 58 | 1015.0 |
| 20260508194551 | 63 | 171 | 2.0 | 4.0 | 0.00 | 0.00 | 0.00 | 58 | 1015.6 |
| 20260508193105 | 63 | 0 | 0.0 | 3.0 | 0.00 | 0.00 | 0.00 | 57 | 1015.9 |
| 20260508191558 | 64 | 227 | 0.0 | 5.0 | 0.00 | 0.00 | 0.00 | 56 | 1016.2 |
| 20260508190107 | 64 | 0 | 2.0 | 7.0 | 0.00 | 0.00 | 0.00 | 53 | 1016.1 |
| 20260508184555 | 65 | 112 | 1.0 | 5.0 | 0.00 | 0.00 | 0.00 | 55 | 1016.5 |
| 20260508183110 | 64 | 0 | 0.0 | 3.0 | 0.00 | 0.00 | 0.00 | 57 | 1016.6 |
| 20260508181554 | 63 | 133 | 1.0 | 7.0 | 0.00 | 0.00 | 0.00 | 58 | 1016.8 |
| 20260508174612 | 63 | 0 | 1.0 | 4.0 | 0.00 | 0.00 | 0.00 | 55 | 1017.1 |
| 20260508173057 | 64 | 300 | 2.0 | 5.0 | 0.00 | 0.00 | 0.00 | 54 | 1017.2 |
| 20260508171601 | 62 | 0 | 1.0 | 7.0 | 0.00 | 0.00 | 0.00 | 54 | 1017.4 |
| 20260508170106 | 63 | 0 | 1.0 | 4.0 | 0.00 | 0.00 | 0.00 | 50 | 1017.4 |
| 20260508164559 | 62 | 0 | 0.0 | 3.0 | 0.00 | 0.00 | 0.00 | 53 | 1017.7 |
| 20260508163055 | 62 | 0 | 1.0 | 4.0 | 0.00 | 0.00 | 0.00 | 51 | 1018.0 |
| 20260508161605 | 61 | 174 | 0.0 | 2.0 | 0.00 | 0.00 | 0.00 | 53 | 1018.1 |
| 20260508160054 | 60 | 0 | 0.0 | 1.0 | 0.00 | 0.00 | 0.00 | 54 | 1018.3 |
| 20260508154600 | 59 | 0 | 0.0 | 3.0 | 0.00 | 0.00 | 0.00 | 57 | 1018.6 |
| 20260508153056 | 59 | 0 | 1.0 | 4.0 | 0.00 | 0.00 | 0.00 | 54 | 1018.7 |
| 20260508151554 | 58 | 0 | 0.0 | 0.0 | 0.00 | 0.00 | 0.00 | 57 | 1018.7 |
| 20260508150056 | 58 | 0 | 0.0 | 0.0 | 0.00 | 0.00 | 0.00 | 57 | 1018.7 |
| 20260508144554 | 58 | 0 | 0.0 | 0.0 | 0.00 | 0.00 | 0.00 | 62 | 1018.7 |
| 20260508143055 | 57 | 0 | 0.0 | 0.0 | 0.00 | 0.00 | 0.00 | 64 | 1018.8 |
| 20260508141605 | 56 | 0 | 0.0 | 0.0 | 0.00 | 0.00 | 0.00 | 65 | 1018.9 |
| 20260508140056 | 55 | 0 | 0.0 | 0.0 | 0.00 | 0.00 | 0.00 | 69 | 1019.1 |
| 20260508134557 | 53 | 0 | 0.0 | 0.0 | 0.00 | 0.00 | 0.00 | 71 | 1018.9 |
| 20260508133100 | 52 | 0 | 0.0 | 0.0 | 0.00 | 0.00 | 0.00 | 74 | 1019.0 |
| 20260508131606 | 51 | 0 | 0.0 | 0.0 | 0.00 | 0.00 | 0.00 | 82 | 1019.2 |
| 20260508130053 | 50 | 0 | 0.0 | 0.0 | 0.00 | 0.00 | 0.00 | 89 | 1019.0 |
| 20260508124556 | 48 | 0 | 0.0 | 0.0 | 0.00 | 0.01 | 0.00 | 90 | 1018.9 |
| 20260508123113 | 47 | 0 | 0.0 | 0.0 | 0.00 | 0.01 | 0.00 | 92 | 1018.9 |
| 20260508121601 | 46 | 0 | 0.0 | 0.0 | 0.00 | 0.01 | 0.00 | 93 | 1018.8 |
| 20260508120109 | 45 | 0 | 0.0 | 0.0 | 0.00 | 0.01 | 0.00 | 93 | 1018.7 |
| 20260508114601 | 45 | 0 | 0.0 | 0.0 | 0.00 | 0.07 | 0.00 | 92 | 1018.5 |
| 20260508113107 | 43 | 0 | 0.0 | 0.0 | 0.00 | 0.07 | 0.00 | 94 | 1018.3 |
| 20260508111551 | 43 | 0 | 0.0 | 0.0 | 0.00 | 0.07 | 0.00 | 94 | 1017.8 |
| 20260508110105 | 43 | 0 | 0.0 | 0.0 | 0.00 | 0.07 | 0.00 | 94 | 1017.8 |
| 20260508104556 | 43 | 0 | 0.0 | 0.0 | 0.00 | 0.10 | 0.00 | 94 | 1017.5 |
| 20260508103101 | 44 | 0 | 0.0 | 0.0 | 0.00 | 0.10 | 0.00 | 93 | 1017.4 |
| 20260508101556 | 44 | 0 | 0.0 | 0.0 | 0.00 | 0.10 | 0.00 | 93 | 1017.1 |
| 20260508100053 | 44 | 0 | 0.0 | 0.0 | 0.00 | 0.10 | 0.00 | 93 | 1016.9 |
| 20260508094600 | 45 | 0 | 0.0 | 0.0 | 0.00 | 0.10 | 0.00 | 92 | 1016.8 |
| 20260508093105 | 45 | 0 | 0.0 | 0.0 | 0.00 | 0.10 | 0.00 | 92 | 1016.7 |
| 20260508091556 | 46 | 0 | 0.0 | 0.0 | 0.00 | 0.10 | 0.00 | 91 | 1016.6 |
| 20260508090100 | 46 | 0 | 0.0 | 0.0 | 0.00 | 0.10 | 0.00 | 91 | 1016.6 |
| 20260508084558 | 46 | 0 | 0.0 | 0.0 | 0.00 | 0.11 | 0.00 | 91 | 1016.6 |
| 20260508083052 | 47 | 0 | 0.0 | 0.0 | 0.00 | 0.11 | 0.00 | 91 | 1016.5 |
| 20260508081601 | 47 | 0 | 0.0 | 0.0 | 0.00 | 0.11 | 0.00 | 91 | 1016.3 |
| 20260508080051 | 47 | 0 | 0.0 | 0.0 | 0.00 | 0.11 | 0.00 | 91 | 1016.3 |
| 20260508074556 | 48 | 0 | 0.0 | 0.0 | 0.00 | 0.15 | 0.00 | 90 | 1016.2 |
| 20260508073055 | 48 | 0 | 0.0 | 0.0 | 0.00 | 0.15 | 0.00 | 90 | 1016.2 |
| 20260508071552 | 48 | 0 | 0.0 | 0.0 | 0.00 | 0.15 | 0.00 | 92 | 1015.9 |
| 20260508070053 | 48 | 0 | 0.0 | 0.0 | 0.00 | 0.15 | 0.00 | 93 | 1016.0 |
| 20260508064553 | 48 | 0 | 0.0 | 0.0 | 0.00 | 0.16 | 0.00 | 93 | 1015.7 |
| 20260508063102 | 47 | 0 | 0.0 | 0.0 | 0.00 | 0.16 | 0.00 | 94 | 1015.7 |
| 20260508061557 | 47 | 0 | 0.0 | 0.0 | 0.00 | 0.16 | 0.00 | 94 | 1015.8 |
| 20260508060056 | 47 | 0 | 0.0 | 0.0 | 0.00 | 0.16 | 0.00 | 93 | 1015.6 |
| 20260508054555 | 47 | 0 | 0.0 | 0.0 | 0.00 | 0.22 | 0.00 | 93 | 1015.7 |
| 20260508053105 | 48 | 0 | 0.0 | 0.0 | 0.00 | 0.22 | 0.00 | 92 | 1015.9 |
| 20260508051559 | 48 | 0 | 0.0 | 0.0 | 0.00 | 0.22 | 0.00 | 91 | 1015.8 |
| 20260508050057 | 48 | 0 | 0.0 | 0.0 | 0.00 | 0.22 | 0.00 | 91 | 1015.7 |
| 20260508044556 | 49 | 0 | 0.0 | 0.0 | 0.00 | 0.38 | 0.00 | 90 | 1015.6 |
| 20260508043103 | 48 | 0 | 0.0 | 0.0 | 0.00 | 0.38 | 0.00 | 90 | 1015.6 |
| 20260508041600 | 48 | 0 | 0.0 | 0.0 | 0.00 | 0.38 | 0.00 | 89 | 1015.5 |
| 20260508040055 | 49 | 0 | 0.0 | 0.0 | 0.00 | 0.38 | 0.00 | 88 | 1015.5 |
| 20260508034607 | 50 | 0 | 0.0 | 0.0 | 0.00 | 0.39 | 0.38 | 87 | 1015.4 |
| 20260508033055 | 50 | 0 | 0.0 | 0.0 | 0.00 | 0.39 | 0.38 | 85 | 1015.5 |
| 20260508031558 | 50 | 0 | 0.0 | 0.0 | 0.00 | 0.39 | 0.38 | 87 | 1015.6 |
| 20260508030059 | 50 | 0 | 0.0 | 2.0 | 0.00 | 0.39 | 0.38 | 86 | 1015.5 |
| 20260508024553 | 50 | 0 | 0.0 | 1.0 | 0.00 | 0.43 | 0.38 | 85 | 1015.4 |
| 20260508023052 | 50 | 0 | 0.0 | 1.0 | 0.00 | 0.43 | 0.38 | 86 | 1015.1 |
| 20260508021601 | 50 | 0 | 0.0 | 0.0 | 0.00 | 0.43 | 0.38 | 87 | 1014.9 |
| 20260508020057 | 50 | 0 | 0.0 | 0.0 | 0.00 | 0.43 | 0.38 | 87 | 1014.6 |
| 20260508014551 | 50 | 0 | 0.0 | 0.0 | 0.00 | 0.45 | 0.38 | 86 | 1014.6 |
| 20260508013059 | 50 | 0 | 0.0 | 0.0 | 0.00 | 0.45 | 0.38 | 85 | 1014.3 |
| 20260508011558 | 51 | 0 | 0.0 | 0.0 | 0.00 | 0.45 | 0.38 | 84 | 1014.2 |
| 20260508010051 | 52 | 0 | 0.0 | 0.0 | 0.00 | 0.45 | 0.38 | 83 | 1014.2 |
| 20260508004553 | 52 | 0 | 0.0 | 1.0 | 0.00 | 0.58 | 0.38 | 81 | 1013.8 |
| 20260508003053 | 53 | 0 | 0.0 | 2.0 | 0.00 | 0.58 | 0.38 | 80 | 1013.6 |
| 20260508001611 | 53 | 0 | 0.0 | 6.0 | 0.00 | 0.58 | 0.38 | 79 | 1013.4 |
| 20260508000054 | 54 | 0 | 0.0 | 0.0 | 0.00 | 0.58 | 0.38 | 79 | 1013.2 |
| 20260507234553 | 54 | 0 | 0.0 | 6.0 | 0.00 | 0.73 | 0.38 | 78 | 1012.9 |
| 20260507233056 | 55 | 301 | 0.0 | 5.0 | 0.00 | 0.73 | 0.38 | 77 | 1012.9 |
| 20260507231556 | 55 | 0 | 0.0 | 4.0 | 0.00 | 0.73 | 0.38 | 77 | 1012.8 |
| 20260507230053 | 56 | 0 | 1.0 | 8.0 | 0.00 | 0.73 | 0.38 | 77 | 1012.7 |